Time,TemperatureF,DewpointF,PressureIn,WindDirection,WindDirectionDegrees,WindSpeedMPH,WindSpeedGustMPH,Humidity,HourlyPrecipIn,Conditions,Clouds,dailyrainin,SoftwareType,DateUTC
2013-07-27 09:22:00,70.0,68.0,30.05,NW,315,0.0,0.0,92,0.00,,,0.00,,2013-07-27 13:22:00,
2013-07-27 09:32:00,71.0,68.0,30.05,NW,315,0.0,0.0,91,0.00,,,0.00,,2013-07-27 13:32:00,
2013-07-27 09:44:00,72.0,69.0,30.05,NW,315,0.0,0.0,90,0.00,,,0.00,,2013-07-27 13:44:00,
2013-07-27 10:02:00,73.0,70.0,30.06,WNW,293,0.0,0.0,89,0.00,,,0.00,,2013-07-27 14:02:00,
2013-07-27 10:22:00,74.0,70.0,30.06,SSE,158,0.0,0.0,86,0.00,,,0.00,,2013-07-27 14:22:00,
2013-07-27 10:32:00,75.0,70.0,30.06,East,90,0.0,0.0,84,0.00,,,0.00,,2013-07-27 14:32:00,
2013-07-27 10:44:00,75.0,70.0,30.06,East,90,0.0,0.0,84,0.00,,,0.00,,2013-07-27 14:44:00,
2013-07-27 10:54:00,76.0,70.0,30.06,WSW,248,0.0,5.0,81,0.00,,,0.00,,2013-07-27 14:54:00,
2013-07-27 11:02:00,77.0,70.0,30.06,North,0,0.0,0.0,78,0.00,,,0.00,,2013-07-27 15:02:00,
2013-07-27 11:12:00,78.0,70.0,30.06,NW,315,0.0,4.0,77,0.00,,,0.00,,2013-07-27 15:12:00,
2013-07-27 11:22:00,78.0,69.0,30.06,SE,135,4.0,6.0,75,0.00,,,0.00,,2013-07-27 15:22:00,
2013-07-27 11:44:00,79.0,69.0,30.06,SE,135,2.0,2.0,72,0.00,,,0.00,,2013-07-27 15:44:00,
2013-07-27 11:53:00,80.0,69.0,30.06,South,180,0.0,2.0,70,0.00,,,0.00,,2013-07-27 15:53:00,
2013-07-27 12:02:00,81.0,69.0,30.06,SSW,203,0.0,6.0,68,0.00,,,0.00,,2013-07-27 16:02:00,
2013-07-27 12:12:00,81.0,69.0,30.05,South,180,0.0,0.0,67,0.00,,,0.00,,2013-07-27 16:12:00,
2013-07-27 12:33:00,82.0,69.0,30.05,SE,135,3.0,3.0,65,0.00,,,0.00,,2013-07-27 16:33:00,
2013-07-27 12:43:00,83.0,69.0,30.05,WNW,293,0.0,0.0,63,0.00,,,0.00,,2013-07-27 16:43:00,
2013-07-27 12:53:00,84.0,69.0,30.05,SW,225,0.0,3.0,61,0.00,,,0.00,,2013-07-27 16:53:00,
2013-07-27 13:32:00,82.0,66.0,30.04,NNW,338,0.0,0.0,59,0.00,,,0.00,,2013-07-27 17:32:00,
2013-07-27 13:43:00,85.0,69.0,30.04,WSW,248,3.0,3.0,58,0.00,,,0.00,,2013-07-27 17:43:00,
2013-07-27 16:12:00,84.0,64.0,30.02,SE,135,2.0,2.0,51,0.00,,,0.00,,2013-07-27 20:12:00,
2013-07-27 16:23:00,83.0,64.0,30.02,SE,135,2.0,2.0,53,0.00,,,0.00,,2013-07-27 20:23:00,
2013-07-27 16:32:00,83.0,65.0,30.02,SE,135,0.0,0.0,55,0.00,,,0.00,,2013-07-27 20:32:00,
2013-07-27 16:43:00,83.0,66.0,30.02,South,180,0.0,0.0,56,0.00,,,0.00,,2013-07-27 20:43:00,
2013-07-27 16:52:00,82.0,65.0,30.01,WSW,248,0.0,2.0,56,0.00,,,0.00,,2013-07-27 20:52:00,
2013-07-27 17:03:00,82.0,65.0,30.02,SE,135,0.0,4.0,57,0.00,,,0.00,,2013-07-27 21:03:00,
2013-07-27 17:12:00,81.0,65.0,30.02,WSW,248,0.0,3.0,59,0.00,,,0.00,,2013-07-27 21:12:00,
2013-07-27 17:23:00,80.0,65.0,30.02,WSW,248,7.0,7.0,61,0.00,,,0.00,,2013-07-27 21:23:00,
2013-07-27 17:33:00,79.0,65.0,30.02,WSW,248,4.0,6.0,62,0.00,,,0.00,,2013-07-27 21:33:00,
2013-07-27 17:43:00,79.0,65.0,30.01,WSW,248,3.0,3.0,63,0.00,,,0.00,,2013-07-27 21:43:00,
2013-07-27 17:52:00,78.0,65.0,30.01,SSW,203,0.0,2.0,64,0.00,,,0.00,,2013-07-27 21:52:00,
2013-07-27 18:02:00,77.0,65.0,30.01,SSE,158,3.0,3.0,67,0.00,,,0.00,,2013-07-27 22:02:00,
2013-07-27 18:12:00,76.0,65.0,30.01,WSW,248,3.0,3.0,68,0.00,,,0.00,,2013-07-27 22:12:00,
2013-07-27 18:22:00,77.0,66.0,30.01,WSW,248,6.0,7.0,68,0.00,,,0.00,,2013-07-27 22:22:00,
2013-07-27 18:33:00,77.0,66.0,30.01,SE,135,0.0,7.0,69,0.00,,,0.00,,2013-07-27 22:33:00,
2013-07-27 18:43:00,77.0,66.0,30.01,SSE,158,6.0,6.0,69,0.00,,,0.00,,2013-07-27 22:43:00,
2013-07-27 18:53:00,76.0,65.0,30.01,SSE,158,0.0,3.0,68,0.00,,,0.00,,2013-07-27 22:53:00,
2013-07-27 19:02:00,75.0,64.0,30.01,ESE,113,7.0,8.0,68,0.00,,,0.00,,2013-07-27 23:02:00,
2013-07-27 19:12:00,75.0,64.0,30.01,SSE,158,7.0,7.0,69,0.00,,,0.00,,2013-07-27 23:12:00,
2013-07-27 19:22:00,74.0,63.0,30.01,SSE,158,0.0,0.0,69,0.00,,,0.00,,2013-07-27 23:22:00,
2013-07-27 19:32:00,73.0,62.0,30.01,SSE,158,0.0,0.0,69,0.00,,,0.00,,2013-07-27 23:32:00,
2013-07-27 19:44:00,72.0,62.0,30.01,SE,135,0.0,0.0,70,0.00,,,0.00,,2013-07-27 23:44:00,
2013-07-27 19:52:00,71.0,62.0,30.01,SSE,158,0.0,0.0,72,0.00,,,0.00,,2013-07-27 23:52:00,
2013-07-27 20:02:00,71.0,62.0,30.02,SE,135,0.0,0.0,73,0.00,,,0.00,,2013-07-28 00:02:00,
2013-07-27 20:12:00,70.0,61.0,30.02,SSE,158,7.0,7.0,74,0.00,,,0.00,,2013-07-28 00:12:00,
2013-07-27 20:23:00,70.0,62.0,30.01,SSE,158,0.0,7.0,75,0.00,,,0.00,,2013-07-28 00:23:00,
2013-07-27 20:32:00,69.0,61.0,30.01,SSE,158,2.0,5.0,76,0.00,,,0.00,,2013-07-28 00:32:00,
2013-07-27 20:44:00,69.0,61.0,30.01,SSE,158,0.0,3.0,77,0.00,,,0.00,,2013-07-28 00:44:00,
2013-07-27 20:53:00,68.0,61.0,30.01,South,180,0.0,8.0,78,0.00,,,0.00,,2013-07-28 00:53:00,
2013-07-27 21:02:00,68.0,61.0,30.01,SE,135,0.0,4.0,79,0.00,,,0.00,,2013-07-28 01:02:00,
2013-07-27 21:12:00,68.0,62.0,30.01,SSE,158,0.0,2.0,80,0.00,,,0.00,,2013-07-28 01:12:00,
2013-07-27 21:23:00,68.0,62.0,30.01,SSE,158,0.0,3.0,81,0.00,,,0.00,,2013-07-28 01:23:00,
2013-07-27 21:32:00,67.0,61.0,30.02,SSE,158,0.0,1.0,82,0.00,,,0.00,,2013-07-28 01:32:00,
2013-07-27 21:43:00,67.0,62.0,30.02,SSE,158,4.0,7.0,84,0.00,,,0.00,,2013-07-28 01:43:00,
2013-07-27 21:53:00,67.0,62.0,30.02,SSE,158,0.0,7.0,84,0.00,,,0.00,,2013-07-28 01:53:00,
2013-07-27 22:03:00,67.0,63.0,30.02,SSE,158,0.0,3.0,86,0.00,,,0.00,,2013-07-28 02:03:00,
2013-07-27 22:12:00,67.0,63.0,30.02,SE,135,0.0,0.0,86,0.00,,,0.00,,2013-07-28 02:12:00,
2013-07-27 22:22:00,66.0,62.0,30.02,SE,135,0.0,0.0,86,0.00,,,0.00,,2013-07-28 02:22:00,
2013-07-27 22:32:00,66.0,62.0,30.03,SE,135,0.0,0.0,86,0.00,,,0.00,,2013-07-28 02:32:00,
2013-07-27 22:42:00,66.0,62.0,30.02,SE,135,0.0,0.0,87,0.00,,,0.00,,2013-07-28 02:42:00,
2013-07-27 22:53:00,66.0,62.0,30.02,SE,135,0.0,0.0,87,0.00,,,0.00,,2013-07-28 02:53:00,
2013-07-27 23:03:00,66.0,62.0,30.02,ESE,113,0.0,0.0,87,0.00,,,0.00,,2013-07-28 03:03:00,
2013-07-27 23:12:00,66.0,62.0,30.01,ESE,113,0.0,0.0,87,0.00,,,0.00,,2013-07-28 03:12:00,
2013-07-27 23:22:00,66.0,62.0,30.01,ESE,113,0.0,0.0,87,0.00,,,0.00,,2013-07-28 03:22:00,
2013-07-27 23:32:00,66.0,62.0,30.01,ESE,113,0.0,0.0,87,0.00,,,0.00,,2013-07-28 03:32:00,
2013-07-27 23:42:00,66.0,62.0,30.00,ESE,113,0.0,0.0,88,0.00,,,0.00,,2013-07-28 03:42:00,
2013-07-27 23:53:00,66.0,62.0,30.00,ESE,113,0.0,0.0,88,0.00,,,0.00,,2013-07-28 03:53:00,